Eagle River, WI

3:07 PM CDT on April 25, 2017 (GMT -0500)
Eagle River Union

Weather History for KEGV - September, 2013

Change the Weather History Date:

Wednesday, September 25, 2013

  Actual Average Record
Temperature  
Mean Temperature 54 °F -  
Max Temperature 69 °F 62 °F 77 °F (1998)
Min Temperature 39 °F 38 °F 28 °F (2000)
Degree Days  
Heating Degree Days 11    
Growing Degree Days 4 (Base 50)    
Moisture  
Dew Point 45 °F    
Average Humidity 82    
Maximum Humidity 100    
Minimum Humidity 36    
Precipitation  
Precipitation 0.00 in - - ()
Sea Level Pressure  
Sea Level Pressure 30.02 in    
Wind  
Wind Speed 1 mph (ESE)    
Max Wind Speed 8 mph    
Max Gust Speed -    
Visibility 5 miles    
Events Fog    
Averages and records for this station are not official NWS values.
T = Trace of Precipitation, MM = Missing Value Source: NWS Daily Summary

Daily Weather History Graph

Daily Weather History Graph

Search for Another Location

Airport or City:

Trip Planner

Search our weather history database for the weather conditions in past years. The results will help you decide how hot, cold, wet, or windy it might be!

Date:

Astronomy

Sep. 25, 2013 Rise Set
Actual Time 6:48 AM CDT 6:48 PM CDT
Civil Twilight 6:18 AM CDT 7:17 PM CDT
Nautical Twilight 5:43 AM CDT 7:52 PM CDT
Astronomical Twilight 5:07 AM CDT 8:28 PM CDT
Moon 10:38 PM CDT 1:10 PM CDT
Length of Visible Light 12h 59m
Length of Day
12h 00m
Waning Gibbous, 64% of the Moon is Illuminated
Sep 25
Waning Gibbous
Sep 26
Last Quarter
Oct 4
New
Oct 11
First Quarter
Oct 18
Full

Hourly Weather History & Observations

Time (CDT) Temp. Dew Point Humidity Pressure Visibility Wind Dir Wind Speed Gust Speed Precip Events Conditions
12:15 AM 43.7 °F 43.7 °F 100% 30.02 in 0.2 mi Calm Calm - N/A Fog Fog
12:35 AM 43.9 °F 43.9 °F 100% 30.02 in 0.5 mi Calm Calm - N/A Fog Fog
12:55 AM 43.0 °F 43.0 °F 100% 30.02 in 0.5 mi Calm Calm - N/A Fog Fog
1:15 AM 42.1 °F 42.1 °F 100% 30.02 in - Calm Calm - N/A   Mostly Cloudy
1:35 AM 41.2 °F 41.2 °F 100% 30.02 in - Calm Calm - N/A   Overcast
1:55 AM 41.7 °F 41.7 °F 100% 30.02 in 0.2 mi Calm Calm - N/A Fog Fog
2:35 AM 41.0 °F 41.0 °F 100% 30.02 in 0.5 mi Calm Calm - N/A Fog Fog
2:55 AM 40.6 °F 40.6 °F 100% 30.02 in 0.2 mi Calm Calm - N/A Fog Fog
3:15 AM 41.5 °F 41.5 °F 100% 30.02 in 0.2 mi Calm Calm - N/A Fog Fog
3:35 AM 41.2 °F 41.2 °F 100% 30.02 in 0.2 mi Calm Calm - N/A Fog Fog
3:55 AM 40.6 °F 40.6 °F 100% 30.03 in 0.2 mi Calm Calm - N/A Fog Fog
4:15 AM 40.3 °F 40.3 °F 100% 30.03 in 0.2 mi Calm Calm - N/A Fog Fog
4:35 AM 40.1 °F 40.1 °F 100% 30.03 in 0.2 mi Calm Calm - N/A Fog Fog
4:55 AM 40.3 °F 40.3 °F 100% 30.03 in 0.2 mi Calm Calm - N/A Fog Fog
5:15 AM 40.5 °F 40.5 °F 100% 30.03 in 0.2 mi Calm Calm - N/A Fog Fog
5:35 AM 41.2 °F 41.2 °F 100% 30.03 in 0.2 mi Calm Calm - N/A Fog Fog
5:55 AM 41.0 °F 41.0 °F 100% 30.03 in 0.2 mi Calm Calm - N/A Fog Fog
6:15 AM 40.5 °F 40.5 °F 100% 30.03 in 0.2 mi Calm Calm - N/A Fog Fog
6:35 AM 40.1 °F 40.1 °F 100% 30.03 in 0.2 mi Calm Calm - N/A Fog Fog
6:55 AM 39.6 °F 39.6 °F 100% 30.04 in 0.2 mi Calm Calm - N/A Fog Fog
7:15 AM 40.1 °F 40.1 °F 100% 30.04 in 0.2 mi Calm Calm - N/A Fog Fog
7:35 AM 40.6 °F 40.6 °F 100% 30.04 in 0.2 mi Calm Calm - N/A Fog Fog
7:55 AM 42.1 °F 42.1 °F 100% 30.04 in 0.2 mi Calm Calm - N/A Fog Fog
8:15 AM 43.0 °F 43.0 °F 100% 30.04 in 0.2 mi Calm Calm - N/A Fog Fog
8:35 AM 45.1 °F 45.1 °F 100% 30.04 in 0.2 mi Calm Calm - N/A Fog Fog
8:55 AM 46.4 °F 46.4 °F 100% 30.04 in 0.2 mi Calm Calm - N/A Fog Fog
9:15 AM 47.5 °F 47.5 °F 100% 30.05 in 0.2 mi Calm Calm - N/A Fog Fog
9:35 AM 50.0 °F 50.0 °F 100% 30.04 in 0.2 mi Calm Calm - N/A Fog Fog
9:55 AM 51.4 °F 51.4 °F 100% 30.04 in 2.0 mi Calm Calm - N/A   Overcast
10:15 AM 52.2 °F 52.2 °F 100% 30.04 in 10.0 mi Calm Calm - N/A   Scattered Clouds
10:35 AM 54.3 °F 54.3 °F 100% 30.04 in 10.0 mi Calm Calm - N/A   Clear
10:55 AM 54.5 °F 54.5 °F 100% 30.04 in 10.0 mi Calm Calm - N/A   Clear
11:15 AM 59.9 °F 52.5 °F 77% 30.04 in 10.0 mi Calm Calm - N/A   Clear
11:35 AM 61.9 °F 49.6 °F 64% 30.03 in 10.0 mi NE 3.5 mph - N/A   Clear
11:55 AM 63.3 °F 49.5 °F 61% 30.03 in 10.0 mi ENE 5.8 mph - N/A   Clear
12:15 PM 64.2 °F 49.5 °F 59% 30.03 in 10.0 mi Calm Calm - N/A   Clear
12:35 PM 64.8 °F 48.9 °F 56% 30.03 in 10.0 mi East 4.6 mph - N/A   Scattered Clouds
1:15 PM 65.5 °F 47.5 °F 52% 30.01 in 10.0 mi SE 3.5 mph - N/A   Clear
1:35 PM 66.2 °F 47.8 °F 52% 30.01 in 10.0 mi Calm Calm - N/A   Clear
1:55 PM 67.1 °F 46.9 °F 48% 30.01 in 10.0 mi East 3.5 mph - N/A   Clear
2:15 PM 67.8 °F 46.6 °F 46% 30.00 in 10.0 mi ESE 4.6 mph - N/A   Clear
2:35 PM 68.9 °F 47.3 °F 46% 29.99 in 10.0 mi East 8.1 mph - N/A   Clear
2:55 PM 69.3 °F 46.2 °F 44% 29.99 in 10.0 mi South 3.5 mph - N/A   Clear
3:15 PM 69.6 °F 44.4 °F 40% 29.99 in 10.0 mi East 3.5 mph - N/A   Clear
3:55 PM 69.1 °F 41.2 °F 36% 29.99 in 10.0 mi Calm Calm - N/A   Clear
4:15 PM 69.4 °F 42.4 °F 38% 29.98 in 10.0 mi SSE 5.8 mph - N/A   Clear
4:35 PM 69.1 °F 41.4 °F 37% 29.99 in 10.0 mi ESE 3.5 mph - N/A   Clear
4:55 PM 68.4 °F 43.7 °F 41% 29.99 in 10.0 mi Calm Calm - N/A   Clear
5:15 PM 68.2 °F 44.2 °F 42% 29.99 in 10.0 mi South 4.6 mph - N/A   Clear
5:35 PM 68.0 °F 43.7 °F 41% 30.00 in 10.0 mi Calm Calm - N/A   Clear
5:55 PM 66.7 °F 45.3 °F 46% 30.00 in 10.0 mi Calm Calm - N/A   Clear
6:15 PM 65.7 °F 45.1 °F 47% 29.99 in 10.0 mi Calm Calm - N/A   Clear
6:35 PM 63.7 °F 46.4 °F 53% 29.98 in 10.0 mi SE 3.5 mph - N/A   Clear
6:55 PM 61.0 °F 47.1 °F 60% 29.98 in 10.0 mi SE 3.5 mph - N/A   Clear
7:15 PM 60.4 °F 47.5 °F 62% 29.98 in 10.0 mi SE 4.6 mph - N/A   Clear
7:35 PM 59.4 °F 47.8 °F 66% 29.99 in 10.0 mi SE 3.5 mph - N/A   Clear
7:55 PM 54.7 °F 48.0 °F 78% 29.99 in 10.0 mi Calm Calm - N/A   Clear
8:15 PM 51.1 °F 49.5 °F 94% 30.00 in 10.0 mi Calm Calm - N/A   Clear
8:35 PM 49.8 °F 48.4 °F 95% 30.00 in 10.0 mi Calm Calm - N/A   Clear
8:55 PM 49.6 °F 47.3 °F 92% 30.00 in 10.0 mi Calm Calm - N/A   Clear
9:15 PM 48.2 °F 48.0 °F 99% 30.01 in 10.0 mi Calm Calm - N/A   Clear
9:35 PM 47.5 °F 47.5 °F 100% 30.01 in 10.0 mi Calm Calm - N/A   Clear
9:55 PM 46.2 °F 46.2 °F 100% 30.01 in 1.0 mi Calm Calm - N/A   Mist
10:15 PM 45.5 °F 45.5 °F 100% 30.02 in 0.2 mi Calm Calm - N/A Fog Fog
10:35 PM 45.3 °F 45.3 °F 100% 30.02 in 0.8 mi Calm Calm - N/A   Mostly Cloudy
10:55 PM 43.5 °F 43.5 °F 100% 30.02 in 0.5 mi Calm Calm - N/A Fog Fog
11:15 PM 42.1 °F 42.1 °F 100% 30.02 in 0.2 mi Calm Calm - N/A Fog Fog
11:35 PM 43.7 °F 43.7 °F 100% 30.03 in 0.8 mi Calm Calm - N/A   Mostly Cloudy
11:55 PM 42.4 °F 42.4 °F 100% 30.03 in 1.0 mi Calm Calm - N/A   Mostly Cloudy